TimeHST,TemperatureF,Dew PointF,Humidity,Sea Level PressureIn,VisibilityMPH,Wind Direction,Wind SpeedMPH,Gust SpeedMPH,PrecipitationIn,Events,Conditions,WindDirDegrees,DateUTC
12:56 AM,66.9,61.9,84,29.97,10.0,Calm,Calm,-,N/A,,Clear,0,2012-10-22 10:56:00
1:56 AM,66.9,63.0,87,29.96,10.0,Calm,Calm,-,N/A,,Clear,0,2012-10-22 11:56:00
2:56 AM,63.0,59.9,90,29.95,10.0,Calm,Calm,-,N/A,,Clear,0,2012-10-22 12:56:00
3:56 AM,63.9,61.0,90,29.95,10.0,Calm,Calm,-,N/A,,Clear,0,2012-10-22 13:56:00
4:56 AM,63.0,59.9,90,29.95,10.0,Calm,Calm,-,N/A,,Clear,0,2012-10-22 14:56:00
5:56 AM,63.9,61.9,93,29.97,10.0,Calm,Calm,-,N/A,,Clear,0,2012-10-22 15:56:00
6:56 AM,65.8,63.0,90,29.99,10.0,Calm,Calm,-,N/A,,Clear,0,2012-10-22 16:56:00
7:56 AM,75.9,63.0,64,30.00,10.0,Calm,Calm,-,N/A,,Clear,0,2012-10-22 17:56:00
8:56 AM,75.9,63.9,66,30.01,10.0,Calm,Calm,-,N/A,,Scattered Clouds,0,2012-10-22 18:56:00
9:56 AM,74.8,63.9,69,30.02,10.0,Calm,Calm,-,N/A,,Mostly Cloudy,0,2012-10-22 19:56:00
10:56 AM,79.9,63.9,58,29.99,10.0,Variable,3.5,-,N/A,,Partly Cloudy,0,2012-10-22 20:56:00
11:56 AM,77.0,63.0,62,29.97,10.0,Calm,Calm,-,N/A,,Scattered Clouds,0,2012-10-22 21:56:00
12:10 PM,77.0,62.6,61,30.02,10.0,SSW,3.5,-,N/A,,Mostly Cloudy,200,2012-10-22 22:10:00
12:31 PM,80.6,62.6,54,30.01,10.0,Variable,3.5,-,N/A,,Mostly Cloudy,0,2012-10-22 22:31:00
12:56 PM,79.9,61.9,54,29.94,10.0,SSW,3.5,-,N/A,,Scattered Clouds,210,2012-10-22 22:56:00
1:56 PM,81.9,61.0,49,29.91,10.0,SE,5.8,-,N/A,,Mostly Cloudy,130,2012-10-22 23:56:00
2:56 PM,79.9,61.9,54,29.90,10.0,WNW,6.9,-,N/A,,Mostly Cloudy,300,2012-10-23 00:56:00
3:56 PM,77.9,61.9,58,29.90,10.0,WNW,3.5,-,N/A,,Mostly Cloudy,300,2012-10-23 01:56:00
4:56 PM,79.9,63.0,56,29.90,10.0,Calm,Calm,-,N/A,,Scattered Clouds,0,2012-10-23 02:56:00
5:07 PM,78.8,62.6,57,29.96,10.0,WNW,4.6,-,N/A,,Mostly Cloudy,290,2012-10-23 03:07:00
5:34 PM,77.0,60.8,57,29.97,10.0,Calm,Calm,-,N/A,,Mostly Cloudy,0,2012-10-23 03:34:00
5:41 PM,75.2,62.6,65,29.97,10.0,Calm,Calm,-,N/A,,Mostly Cloudy,0,2012-10-23 03:41:00
5:56 PM,75.9,61.9,62,29.93,10.0,Calm,Calm,-,N/A,,Mostly Cloudy,0,2012-10-23 03:56:00
6:56 PM,70.9,63.0,76,29.95,10.0,Calm,Calm,-,N/A,,Clear,0,2012-10-23 04:56:00
7:56 PM,68.9,61.0,76,29.96,10.0,Calm,Calm,-,N/A,,Clear,0,2012-10-23 05:56:00
8:56 PM,68.9,61.0,76,29.97,10.0,Calm,Calm,-,N/A,,Clear,0,2012-10-23 06:56:00
9:56 PM,68.9,61.9,78,29.98,10.0,NNE,4.6,-,N/A,,Clear,20,2012-10-23 07:56:00
10:56 PM,68.9,63.0,81,29.97,10.0,Calm,Calm,-,N/A,,Clear,0,2012-10-23 08:56:00
11:56 PM,66.9,61.9,84,29.97,10.0,Calm,Calm,-,N/A,,Clear,0,2012-10-23 09:56:00